User: anonymous   Login
Location: Newark
(20.1200°S, 168.9600°E)
Time: 15:33:17
(UTC+00:00)
Language:

DX 1 - Orbit

View from above orbital plane
View from above orbital plane
View from above satellite
View from above satellite

Ground track
Ground track

The orbit data is extracted from the following two-line orbital elements,

1 40071U 14037C   20022.46777350  .00000058  00000-0  14934-4 0  9990
2 40071  98.4463 192.8200 0007251 245.5587 114.4878 14.81326944299499
Epoch (UTC): 22 January 2020 11:13:35
Eccentricity: 0.0007251
inclination: 98.4463°
perigee height: 620 km
apogee height: 630 km
right ascension of ascending node: 192.8200°
argument of perigee: 245.5587°
revolutions per day: 14.81326944
mean anomaly at epoch: 114.4878°
orbit number at epoch: 29949

The dashed part of the orbit path shows where the satellite is in the earth's shadow,  

DLR